THOR ABLESTAR DEB, 706

Orbit data source: Space-Track

THOR ABLESTAR DEB, 706 is space debris in LEO originally from a launch on Thu, 05 Dec 1963 UTC launched from the Air Force Western Test Range (AFWTR). Debris objects in space refer to the collection of defunct objects orbiting the Earth. Examples of debris include non-operational satellites, rocket bodies, and fragments generated from explosions, collisions, or faulty payload assembly.

Loading next visibility...
Identifier
706, 1963-049D
Orbit
LEO
Country
Flag of USUS
Related business
Manufacturer
Unknown
Mission
Spacecraft
Bus & Motor
Unknown
Mass
Unknown
Launch date (UTC)
1963-12-05 (62 years ago)
Launch vehicle
Unknown
Launch site
Air Force Western Test Range (AFWTR)
Object type
Payload
Rocket body
Debris
Shape & HBR
Unknown shape, 0.1 m
Radar Cross Section
Small (<0.1 m²)

Expand to show TLE details & history
Last TLE update: 11 hours ago

TLE from 11 hours ago
0 THOR ABLESTAR DEB
1 00706U 63049D   26034.11556388  .00000296  00000-0  40368-3 0  9998
2 00706  89.9116  74.2174 0028900  92.6146 324.0690 13.56550393 65130
Epoch: 2026-02-03T02:46Z
TLE epoch observation values (Epoch: 2026-02-03T02:46:24.719Z)
Latitude
56.58223°
Longitude
-100.55344°
Altitude
1,040.434 km
Speed
7.345 km/s
True Right ascension
04h 57m 24s
True Declination
56° 25' 48"
Sunlit
Object was in daylight at epoch
Visualization orbit readout
Latitude
Unknown
Longitude
Unknown
Altitude
Unknown
Speed
Unknown
Apparent Right ascension
Unknown
Apparent Declination
Unknown
Sunlit
N/A
Visualization observer readout
Local Sidereal Time
15:15:20
Azimuth
Unknown
Elevation
Unknown
Doppler factor
Unknown
Orbital elements
Apogee altitude
1,066.749 km
Perigee altitude
1,023.842 km
Semi-major axis
7,423.433 km
Eccentricity
0.00289
Inclination
89.9116°
RAAN
74.2174°
Arg. of periapsis
92.6146°
True anomaly
323.8741°
Mean anomaly
324.069°
Eccentric anomaly
323.97161°
Mean motion
3.39341 °/min
Orbital period
106.09 mins
BSTAR
0.00040368
Loading maneuver chart data...
Computing Atmospheric mass density...
Loading historical data...
Loading historical data...
Loading historical data...
Loading historical data...
Loading historical data...
Loading historical data...
Loading historical data...

Documentation

Showing up to 5 results
|